FENGYUN 1C

Last updated on Tue Sep 15 2026 00:02:20 GMT+0000 (Coordinated Universal Time)

1 25730U 99025A 26257.20386953 .00001632 00000+0 68576-3 0 9996 2 25730 98.8586 331.8957 0012842 8.2677 351.8712 14.27247752410650
UTC large
Height (km)
Speed (km/s)
/
Latitude / Longitude
Inclination (degrees)
Orbital Period (minutes)
Azimuth
Elevation
Range (km)
Doppler Factor

Next 0 passes for location: London (51.5072 / 0.1276)

No passes found over London.
FENGYUN 1C